Year,Month,Day,Hour,Minute,Value (Times are PST for temperature in C)
2018,01,23,00,00,5.70
2018,01,23,00,01,5.70
2018,01,23,00,02,5.70
2018,01,23,00,03,5.80
2018,01,23,00,04,5.70
2018,01,23,00,05,5.70
2018,01,23,00,06,5.70
2018,01,23,00,07,5.70
2018,01,23,00,08,5.70
2018,01,23,00,09,5.70
2018,01,23,00,10,5.70
2018,01,23,00,11,5.70
2018,01,23,00,12,5.70
2018,01,23,00,13,5.70
2018,01,23,00,14,5.70
2018,01,23,00,15,5.70
2018,01,23,00,16,5.70
2018,01,23,00,17,5.70
2018,01,23,00,18,5.70
2018,01,23,00,19,5.70
2018,01,23,00,20,5.70
2018,01,23,00,21,5.70
2018,01,23,00,22,5.70
2018,01,23,00,23,5.70
2018,01,23,00,24,5.70
2018,01,23,00,25,5.70
2018,01,23,00,26,5.70
2018,01,23,00,27,5.70
2018,01,23,00,28,5.70
2018,01,23,00,29,5.70
2018,01,23,00,30,5.70
2018,01,23,00,31,5.70
2018,01,23,00,32,5.70
2018,01,23,00,33,5.70
2018,01,23,00,34,5.60
2018,01,23,00,35,5.60
2018,01,23,00,36,5.60
2018,01,23,00,37,5.60
2018,01,23,00,38,5.60
2018,01,23,00,39,5.60
2018,01,23,00,40,5.60
2018,01,23,00,41,5.60
2018,01,23,00,42,5.60
2018,01,23,00,43,5.60
2018,01,23,00,44,5.60
2018,01,23,00,45,5.60
2018,01,23,00,46,5.60
2018,01,23,00,47,5.60
2018,01,23,00,48,5.50
2018,01,23,00,49,5.50
2018,01,23,00,50,5.50
2018,01,23,00,51,5.50
2018,01,23,00,52,5.50
2018,01,23,00,53,5.50
2018,01,23,00,54,5.50
2018,01,23,00,55,5.40
2018,01,23,00,56,5.40
2018,01,23,00,57,5.40
2018,01,23,00,58,5.40
2018,01,23,00,59,5.40
2018,01,23,01,00,5.40
2018,01,23,01,01,5.40
2018,01,23,01,02,5.40
2018,01,23,01,03,5.40
2018,01,23,01,04,5.40
2018,01,23,01,05,5.40
2018,01,23,01,06,5.40
2018,01,23,01,07,5.40
2018,01,23,01,08,5.40
2018,01,23,01,09,5.40
2018,01,23,01,10,5.40
2018,01,23,01,11,5.40
2018,01,23,01,12,5.40
2018,01,23,01,13,5.30
2018,01,23,01,14,5.30
2018,01,23,01,15,5.30
2018,01,23,01,16,5.30
2018,01,23,01,17,5.30
2018,01,23,01,18,5.30
2018,01,23,01,19,5.30
2018,01,23,01,20,5.30
2018,01,23,01,21,5.30
2018,01,23,01,22,5.30
2018,01,23,01,23,5.30
2018,01,23,01,24,5.30
2018,01,23,01,25,5.30
2018,01,23,01,26,5.30
2018,01,23,01,27,5.40
2018,01,23,01,28,5.40
2018,01,23,01,29,5.40
2018,01,23,01,30,5.40
2018,01,23,01,31,5.40
2018,01,23,01,32,5.40
2018,01,23,01,33,5.40
2018,01,23,01,34,5.40
2018,01,23,01,35,5.40
2018,01,23,01,36,5.40
2018,01,23,01,37,5.40
2018,01,23,01,38,5.40
2018,01,23,01,39,5.40
2018,01,23,01,40,5.40
2018,01,23,01,41,5.40
2018,01,23,01,42,5.40
2018,01,23,01,43,5.40
2018,01,23,01,44,5.40
2018,01,23,01,45,5.40
2018,01,23,01,46,5.40
2018,01,23,01,47,5.40
2018,01,23,01,48,5.40
2018,01,23,01,49,5.40
2018,01,23,01,50,5.40
2018,01,23,01,51,5.40
2018,01,23,01,52,5.40
2018,01,23,01,53,5.40
2018,01,23,01,54,5.40
2018,01,23,01,55,5.40
2018,01,23,01,56,5.40
2018,01,23,01,57,5.40
2018,01,23,01,58,5.40
2018,01,23,01,59,5.40
2018,01,23,02,00,5.40
2018,01,23,02,01,5.40
2018,01,23,02,02,5.40
2018,01,23,02,03,5.40
2018,01,23,02,04,5.40
2018,01,23,02,05,5.40
2018,01,23,02,06,5.40
2018,01,23,02,07,5.40
2018,01,23,02,08,5.40
2018,01,23,02,09,5.30
2018,01,23,02,10,5.30
2018,01,23,02,11,5.30
2018,01,23,02,12,5.30
2018,01,23,02,13,5.30
2018,01,23,02,14,5.30
2018,01,23,02,15,5.30
2018,01,23,02,16,5.30
2018,01,23,02,17,5.30
2018,01,23,02,18,5.30
2018,01,23,02,19,5.30
2018,01,23,02,20,5.30
2018,01,23,02,21,5.30
2018,01,23,02,22,5.30
2018,01,23,02,23,5.30
2018,01,23,02,24,5.30
2018,01,23,02,25,5.30
2018,01,23,02,26,5.30
2018,01,23,02,27,5.30
2018,01,23,02,28,5.30
2018,01,23,02,29,5.20
2018,01,23,02,30,5.20
2018,01,23,02,31,5.20
2018,01,23,02,32,5.20
2018,01,23,02,33,5.20
2018,01,23,02,34,5.20
2018,01,23,02,35,5.20
2018,01,23,02,36,5.20
2018,01,23,02,37,5.20
2018,01,23,02,38,5.20
2018,01,23,02,39,5.20
2018,01,23,02,40,5.20
2018,01,23,02,41,5.20
2018,01,23,02,42,5.20
2018,01,23,02,43,5.20
2018,01,23,02,44,5.20
2018,01,23,02,45,5.20
2018,01,23,02,46,5.20
2018,01,23,02,47,5.20
2018,01,23,02,48,5.20
2018,01,23,02,49,5.20
2018,01,23,02,50,5.20
2018,01,23,02,51,5.20
2018,01,23,02,52,5.20
2018,01,23,02,53,5.20
2018,01,23,02,54,5.20
2018,01,23,02,55,5.20
2018,01,23,02,56,5.20
2018,01,23,02,57,5.20
2018,01,23,02,58,5.20
2018,01,23,02,59,5.20
2018,01,23,03,00,5.20
2018,01,23,03,01,5.20
2018,01,23,03,02,5.20
2018,01,23,03,03,5.20
2018,01,23,03,04,5.20
2018,01,23,03,05,5.20
2018,01,23,03,06,5.20
2018,01,23,03,07,5.10
2018,01,23,03,08,5.10
2018,01,23,03,09,5.10
2018,01,23,03,10,5.10
2018,01,23,03,11,5.10
2018,01,23,03,12,5.10
2018,01,23,03,13,5.10
2018,01,23,03,14,5.10
2018,01,23,03,15,5.10
2018,01,23,03,16,5.10
2018,01,23,03,17,5.10
2018,01,23,03,18,5.10
2018,01,23,03,19,5.10
2018,01,23,03,20,5.20
2018,01,23,03,21,5.20
2018,01,23,03,22,5.20
2018,01,23,03,23,5.20
2018,01,23,03,24,5.20
2018,01,23,03,25,5.20
2018,01,23,03,26,5.20
2018,01,23,03,27,5.20
2018,01,23,03,28,5.20
2018,01,23,03,29,5.20
2018,01,23,03,30,5.20
2018,01,23,03,31,5.20
2018,01,23,03,32,5.20
2018,01,23,03,33,5.20
2018,01,23,03,34,5.20
2018,01,23,03,35,5.20
2018,01,23,03,36,5.20
2018,01,23,03,37,5.20
2018,01,23,03,38,5.20
2018,01,23,03,39,5.20
2018,01,23,03,40,5.20
2018,01,23,03,41,5.20
2018,01,23,03,42,5.20
2018,01,23,03,43,5.20
2018,01,23,03,44,5.20
2018,01,23,03,45,5.20
2018,01,23,03,46,5.20
2018,01,23,03,47,5.20
2018,01,23,03,48,5.20
2018,01,23,03,49,5.20
2018,01,23,03,50,5.20
2018,01,23,03,51,5.20
2018,01,23,03,52,5.20
2018,01,23,03,53,5.20
2018,01,23,03,54,5.20
2018,01,23,03,55,5.20
2018,01,23,03,56,5.20
2018,01,23,03,57,5.20
2018,01,23,03,58,5.30
2018,01,23,03,59,5.30
2018,01,23,04,00,5.30
2018,01,23,04,01,5.30
2018,01,23,04,02,5.30
2018,01,23,04,03,5.30
2018,01,23,04,04,5.40
2018,01,23,04,05,5.40
2018,01,23,04,06,5.40
2018,01,23,04,07,5.40
2018,01,23,04,08,5.40
2018,01,23,04,09,5.40
2018,01,23,04,10,5.40
2018,01,23,04,11,5.40
2018,01,23,04,12,5.40
2018,01,23,04,13,5.40
2018,01,23,04,14,5.50
2018,01,23,04,15,5.50
2018,01,23,04,16,5.50
2018,01,23,04,17,5.50
2018,01,23,04,18,5.50
2018,01,23,04,19,5.50
2018,01,23,04,20,5.60
2018,01,23,04,21,5.60
2018,01,23,04,22,5.60
2018,01,23,04,23,5.60
2018,01,23,04,24,5.60
2018,01,23,04,25,5.60
2018,01,23,04,26,5.60
2018,01,23,04,27,5.60
2018,01,23,04,28,5.60
2018,01,23,04,29,5.60
2018,01,23,04,30,5.60
2018,01,23,04,31,5.60
2018,01,23,04,32,5.60
2018,01,23,04,33,5.60
2018,01,23,04,34,5.60
2018,01,23,04,35,5.60
2018,01,23,04,36,5.60
2018,01,23,04,37,5.60
2018,01,23,04,38,5.60
2018,01,23,04,39,5.60
2018,01,23,04,40,5.60
2018,01,23,04,41,5.60
2018,01,23,04,42,5.60
2018,01,23,04,43,5.60
2018,01,23,04,44,5.50
2018,01,23,04,45,5.50
2018,01,23,04,46,5.50
2018,01,23,04,47,5.50
2018,01,23,04,48,5.50
2018,01,23,04,49,5.50
2018,01,23,04,50,5.50
2018,01,23,04,51,5.50
2018,01,23,04,52,5.50
2018,01,23,04,53,5.40
2018,01,23,04,54,5.40
2018,01,23,04,55,5.40
2018,01,23,04,56,5.40
2018,01,23,04,57,5.40
2018,01,23,04,58,5.40
2018,01,23,04,59,5.40
2018,01,23,05,00,5.40
2018,01,23,05,01,5.30
2018,01,23,05,02,5.30
2018,01,23,05,03,5.30
2018,01,23,05,04,5.30
2018,01,23,05,05,5.30
2018,01,23,05,06,5.30
2018,01,23,05,07,5.30
2018,01,23,05,08,5.30
2018,01,23,05,09,5.20
2018,01,23,05,10,5.20
2018,01,23,05,11,5.20
2018,01,23,05,12,5.20
2018,01,23,05,13,5.20
2018,01,23,05,14,5.20
2018,01,23,05,15,5.20
2018,01,23,05,16,5.20
2018,01,23,05,17,5.20
2018,01,23,05,18,5.30
2018,01,23,05,19,5.30
2018,01,23,05,20,5.20
2018,01,23,05,21,5.30
2018,01,23,05,22,5.30
2018,01,23,05,23,5.30
2018,01,23,05,24,5.30
2018,01,23,05,25,5.30
2018,01,23,05,26,5.30
2018,01,23,05,27,5.30
2018,01,23,05,28,5.30
2018,01,23,05,29,5.30
2018,01,23,05,30,5.30
2018,01,23,05,31,5.30
2018,01,23,05,32,5.30
2018,01,23,05,33,5.30
2018,01,23,05,34,5.30
2018,01,23,05,35,5.30
2018,01,23,05,36,5.30
2018,01,23,05,37,5.30
2018,01,23,05,38,5.30
2018,01,23,05,39,5.40
2018,01,23,05,40,5.40
2018,01,23,05,41,5.40
2018,01,23,05,42,5.40
2018,01,23,05,43,5.40
2018,01,23,05,44,5.40
2018,01,23,05,45,5.50
2018,01,23,05,46,5.40
2018,01,23,05,47,5.50
2018,01,23,05,48,5.50
2018,01,23,05,49,5.40
2018,01,23,05,50,5.40
2018,01,23,05,51,5.40
2018,01,23,05,52,5.40
2018,01,23,05,53,5.40
2018,01,23,05,54,5.40
2018,01,23,05,55,5.40
2018,01,23,05,56,5.40
2018,01,23,05,57,5.50
2018,01,23,05,58,5.50
2018,01,23,05,59,5.50
2018,01,23,06,00,5.50
2018,01,23,06,01,5.50
2018,01,23,06,02,5.50
2018,01,23,06,03,5.50
2018,01,23,06,04,5.50
2018,01,23,06,05,5.50
2018,01,23,06,06,5.50
2018,01,23,06,07,5.50
2018,01,23,06,08,5.50
2018,01,23,06,09,5.50
2018,01,23,06,10,5.50
2018,01,23,06,11,5.50
2018,01,23,06,12,5.50
2018,01,23,06,13,5.50
2018,01,23,06,14,5.50
2018,01,23,06,15,5.50
2018,01,23,06,16,5.50
2018,01,23,06,17,5.50
2018,01,23,06,18,5.50
2018,01,23,06,19,5.50
2018,01,23,06,20,5.50
2018,01,23,06,21,5.50
2018,01,23,06,22,5.50
2018,01,23,06,23,5.50
2018,01,23,06,24,5.50
2018,01,23,06,25,5.50
2018,01,23,06,26,5.50
2018,01,23,06,27,5.50
2018,01,23,06,28,5.50
2018,01,23,06,29,5.60
2018,01,23,06,30,5.60
2018,01,23,06,31,5.60
2018,01,23,06,32,5.60
2018,01,23,06,33,5.60
2018,01,23,06,34,5.60
2018,01,23,06,35,5.60
2018,01,23,06,36,5.60
2018,01,23,06,37,5.60
2018,01,23,06,38,5.60
2018,01,23,06,39,5.60
2018,01,23,06,40,5.60
2018,01,23,06,41,5.60
2018,01,23,06,42,5.60
2018,01,23,06,43,5.60
2018,01,23,06,44,5.60
2018,01,23,06,45,5.60
2018,01,23,06,46,5.60
2018,01,23,06,47,5.60
2018,01,23,06,48,5.60
2018,01,23,06,49,5.60
2018,01,23,06,50,5.60
2018,01,23,06,51,5.60
2018,01,23,06,52,5.60
2018,01,23,06,53,5.50
2018,01,23,06,54,5.50
2018,01,23,06,55,5.50
2018,01,23,06,56,5.50
2018,01,23,06,57,5.50
2018,01,23,06,58,5.60
2018,01,23,06,59,5.60
2018,01,23,07,00,5.60
2018,01,23,07,01,5.60
2018,01,23,07,02,5.60
2018,01,23,07,03,5.60
2018,01,23,07,04,5.60
2018,01,23,07,05,5.60
2018,01,23,07,06,5.60
2018,01,23,07,07,5.60
2018,01,23,07,08,5.60
2018,01,23,07,09,5.60
2018,01,23,07,10,5.60
2018,01,23,07,11,5.60
2018,01,23,07,12,5.60
2018,01,23,07,13,5.60
2018,01,23,07,14,5.60
2018,01,23,07,15,5.50
2018,01,23,07,16,5.50
2018,01,23,07,17,5.50
2018,01,23,07,18,5.50
2018,01,23,07,19,5.50
2018,01,23,07,20,5.50
2018,01,23,07,21,5.50
2018,01,23,07,22,5.50
2018,01,23,07,23,5.50
2018,01,23,07,24,5.50
2018,01,23,07,25,5.50
2018,01,23,07,26,5.50
2018,01,23,07,27,5.50
2018,01,23,07,28,5.50
2018,01,23,07,29,5.50
2018,01,23,07,30,5.50
2018,01,23,07,31,5.50
2018,01,23,07,32,5.50
2018,01,23,07,33,5.50
2018,01,23,07,34,5.50
2018,01,23,07,35,5.50
2018,01,23,07,36,5.50
2018,01,23,07,37,5.60
2018,01,23,07,38,5.60
2018,01,23,07,39,5.50
2018,01,23,07,40,5.60
2018,01,23,07,41,5.60
2018,01,23,07,42,5.50
2018,01,23,07,43,5.50
2018,01,23,07,44,5.50
2018,01,23,07,45,5.50
2018,01,23,07,46,5.40
2018,01,23,07,47,5.40
2018,01,23,07,48,5.40
2018,01,23,07,49,5.40
2018,01,23,07,50,5.40
2018,01,23,07,51,5.40
2018,01,23,07,52,5.40
2018,01,23,07,53,5.40
2018,01,23,07,54,5.40
2018,01,23,07,55,5.40
2018,01,23,07,56,5.40
2018,01,23,07,57,5.40
2018,01,23,07,58,5.50
2018,01,23,07,59,5.50
2018,01,23,08,00,5.50
2018,01,23,08,01,5.50
2018,01,23,08,02,5.50
2018,01,23,08,03,5.50
2018,01,23,08,04,5.50
2018,01,23,08,05,5.50
2018,01,23,08,06,5.50
2018,01,23,08,07,5.50
2018,01,23,08,08,5.60
2018,01,23,08,09,5.60
2018,01,23,08,10,5.60
2018,01,23,08,11,5.60
2018,01,23,08,12,5.70
2018,01,23,08,13,5.70
2018,01,23,08,14,5.70
2018,01,23,08,15,5.70
2018,01,23,08,16,5.80
2018,01,23,08,17,5.80
2018,01,23,08,18,5.80
2018,01,23,08,19,5.80
2018,01,23,08,20,5.80
2018,01,23,08,21,5.80
2018,01,23,08,22,5.80
2018,01,23,08,23,5.80
2018,01,23,08,24,5.80
2018,01,23,08,25,5.70
2018,01,23,08,26,5.70
2018,01,23,08,27,5.70
2018,01,23,08,28,5.70
2018,01,23,08,29,5.80
2018,01,23,08,30,5.80
2018,01,23,08,31,5.80
2018,01,23,08,32,5.80
2018,01,23,08,33,5.80
2018,01,23,08,34,5.80
2018,01,23,08,35,5.80
2018,01,23,08,36,5.70
2018,01,23,08,37,5.70
2018,01,23,08,38,5.70
2018,01,23,08,39,5.70
2018,01,23,08,40,5.70
2018,01,23,08,41,5.60
2018,01,23,08,42,5.60
2018,01,23,08,43,5.60
2018,01,23,08,44,5.60
2018,01,23,08,45,5.60
2018,01,23,08,46,5.60
2018,01,23,08,47,5.60
2018,01,23,08,48,5.60
2018,01,23,08,49,5.60
2018,01,23,08,50,5.50
2018,01,23,08,51,5.50
2018,01,23,08,52,5.50
2018,01,23,08,53,5.50
2018,01,23,08,54,5.50
2018,01,23,08,55,5.50
2018,01,23,08,56,5.40
2018,01,23,08,57,5.40
2018,01,23,08,58,5.40
2018,01,23,08,59,5.40
2018,01,23,09,00,5.40
2018,01,23,09,01,5.40
2018,01,23,09,02,5.40
2018,01,23,09,03,5.30
2018,01,23,09,04,5.30
2018,01,23,09,05,5.30
2018,01,23,09,06,5.30
2018,01,23,09,07,5.30
2018,01,23,09,08,5.30
2018,01,23,09,09,5.30
2018,01,23,09,10,5.20
2018,01,23,09,11,5.20
2018,01,23,09,12,5.20
2018,01,23,09,13,5.20
2018,01,23,09,14,5.20
2018,01,23,09,15,5.10
2018,01,23,09,16,5.10
2018,01,23,09,17,5.10
2018,01,23,09,18,5.10
2018,01,23,09,19,5.10
2018,01,23,09,20,5.10
2018,01,23,09,21,5.10
2018,01,23,09,22,5.00
2018,01,23,09,23,5.00
2018,01,23,09,24,5.00
2018,01,23,09,25,5.00
2018,01,23,09,26,4.90
2018,01,23,09,27,4.90
2018,01,23,09,28,4.90
2018,01,23,09,29,4.80
2018,01,23,09,30,4.80
2018,01,23,09,31,4.80
2018,01,23,09,32,4.80
2018,01,23,09,33,4.80
2018,01,23,09,34,4.80
2018,01,23,09,35,4.80
2018,01,23,09,36,4.80
2018,01,23,09,37,4.80
2018,01,23,09,38,4.80
2018,01,23,09,39,4.70
2018,01,23,09,40,4.70
2018,01,23,09,41,4.70
2018,01,23,09,42,4.70
2018,01,23,09,43,4.70
2018,01,23,09,44,4.70
2018,01,23,09,45,4.70
2018,01,23,09,46,4.60
2018,01,23,09,47,4.60
2018,01,23,09,48,4.60
2018,01,23,09,49,4.60
2018,01,23,09,50,4.60
2018,01,23,09,51,4.50
2018,01,23,09,52,4.50
2018,01,23,09,53,4.40
2018,01,23,09,54,4.40
2018,01,23,09,55,4.30
2018,01,23,09,56,4.30
2018,01,23,09,57,4.30
2018,01,23,09,58,4.20
2018,01,23,09,59,4.20
2018,01,23,10,00,4.20
2018,01,23,10,01,4.20
2018,01,23,10,02,4.10
2018,01,23,10,03,4.10
2018,01,23,10,04,4.10
2018,01,23,10,05,4.10
2018,01,23,10,06,4.10
2018,01,23,10,07,4.10
2018,01,23,10,08,4.10
2018,01,23,10,09,4.10
2018,01,23,10,10,4.00
2018,01,23,10,11,4.10
2018,01,23,10,12,4.10
2018,01,23,10,13,4.10
2018,01,23,10,14,4.10
2018,01,23,10,15,4.10
2018,01,23,10,16,4.10
2018,01,23,10,17,4.10
2018,01,23,10,18,4.10
2018,01,23,10,19,4.00
2018,01,23,10,20,4.00
2018,01,23,10,21,4.00
2018,01,23,10,22,4.00
2018,01,23,10,23,4.00
2018,01,23,10,24,4.00
2018,01,23,10,25,4.00
2018,01,23,10,26,4.00
2018,01,23,10,27,4.00
2018,01,23,10,28,4.00
2018,01,23,10,29,4.00
2018,01,23,10,30,4.00
2018,01,23,10,31,4.10
2018,01,23,10,32,4.00
2018,01,23,10,33,4.10
2018,01,23,10,34,4.10
2018,01,23,10,35,4.10
2018,01,23,10,36,4.10
2018,01,23,10,37,4.10
2018,01,23,10,38,4.10
2018,01,23,10,39,4.10
2018,01,23,10,40,4.20
2018,01,23,10,41,4.20
2018,01,23,10,42,4.20
2018,01,23,10,43,4.20
2018,01,23,10,44,4.20
2018,01,23,10,45,4.20
2018,01,23,10,46,4.20
2018,01,23,10,47,4.20
2018,01,23,10,48,4.20
2018,01,23,10,49,4.20
2018,01,23,10,50,4.20
2018,01,23,10,51,4.20
2018,01,23,10,52,4.20
2018,01,23,10,53,4.30
2018,01,23,10,54,4.30
2018,01,23,10,55,4.30
2018,01,23,10,56,4.30
2018,01,23,10,57,4.30
2018,01,23,10,58,4.30
2018,01,23,10,59,4.30
2018,01,23,11,00,4.30
2018,01,23,11,01,4.30
2018,01,23,11,02,4.30
2018,01,23,11,03,4.30
2018,01,23,11,04,4.30
2018,01,23,11,05,4.30
2018,01,23,11,06,4.30
2018,01,23,11,07,4.30
2018,01,23,11,08,4.40
2018,01,23,11,09,4.40
2018,01,23,11,10,4.40
2018,01,23,11,11,4.40
2018,01,23,11,12,4.40
2018,01,23,11,13,4.40
2018,01,23,11,14,4.40
2018,01,23,11,15,4.40
2018,01,23,11,16,4.40
2018,01,23,11,17,4.40
2018,01,23,11,18,4.40
2018,01,23,11,19,4.40
2018,01,23,11,20,4.40
2018,01,23,11,21,4.40
2018,01,23,11,22,4.40
2018,01,23,11,23,4.40
2018,01,23,11,24,4.40
2018,01,23,11,25,4.40
2018,01,23,11,26,4.40
2018,01,23,11,27,4.40
2018,01,23,11,28,4.40
2018,01,23,11,29,4.40
2018,01,23,11,30,4.40
2018,01,23,11,31,4.40
2018,01,23,11,32,4.40
2018,01,23,11,33,4.40
2018,01,23,11,34,4.40
2018,01,23,11,35,4.40
2018,01,23,11,36,4.40
2018,01,23,11,37,4.40
2018,01,23,11,38,4.40
2018,01,23,11,39,4.40
2018,01,23,11,40,4.40
2018,01,23,11,41,4.50
2018,01,23,11,42,4.50
2018,01,23,11,43,4.50
2018,01,23,11,44,4.50
2018,01,23,11,45,4.50
2018,01,23,11,46,4.60
2018,01,23,11,47,4.60
2018,01,23,11,48,4.60
2018,01,23,11,49,4.60
2018,01,23,11,50,4.60
2018,01,23,11,51,4.60
2018,01,23,11,52,4.60
2018,01,23,11,53,4.60
2018,01,23,11,54,4.60
2018,01,23,11,55,4.60
2018,01,23,11,56,4.60
2018,01,23,11,57,4.60
2018,01,23,11,58,4.60
2018,01,23,11,59,4.60
2018,01,23,12,00,4.60
2018,01,23,12,01,4.60
2018,01,23,12,02,4.60
2018,01,23,12,03,4.50
2018,01,23,12,04,4.50
2018,01,23,12,05,4.50
2018,01,23,12,06,4.50
2018,01,23,12,07,4.50
2018,01,23,12,08,4.50
2018,01,23,12,09,4.50
2018,01,23,12,10,4.50
2018,01,23,12,11,4.50
2018,01,23,12,12,4.50
2018,01,23,12,13,4.50
2018,01,23,12,14,4.50
2018,01,23,12,15,4.60
2018,01,23,12,16,4.50
2018,01,23,12,17,4.60
2018,01,23,12,18,4.60
2018,01,23,12,19,4.60
2018,01,23,12,20,4.60
2018,01,23,12,21,4.60
2018,01,23,12,22,4.60
2018,01,23,12,23,4.60
2018,01,23,12,24,4.60
2018,01,23,12,25,4.60
2018,01,23,12,26,4.60
2018,01,23,12,27,4.60
2018,01,23,12,28,4.60
2018,01,23,12,29,4.60
2018,01,23,12,30,4.60
2018,01,23,12,31,4.60
2018,01,23,12,32,4.60
2018,01,23,12,33,4.60
2018,01,23,12,34,4.70
2018,01,23,12,35,4.70
2018,01,23,12,36,4.70
2018,01,23,12,37,4.70
2018,01,23,12,38,4.70
2018,01,23,12,39,4.70
2018,01,23,12,40,4.70
2018,01,23,12,41,4.60
2018,01,23,12,42,4.60
2018,01,23,12,43,4.60
2018,01,23,12,44,4.60
2018,01,23,12,45,4.60
2018,01,23,12,46,4.60
2018,01,23,12,47,4.60
2018,01,23,12,48,4.60
2018,01,23,12,49,4.70
2018,01,23,12,50,4.70
2018,01,23,12,51,4.70
2018,01,23,12,52,4.70
2018,01,23,12,53,4.70
2018,01,23,12,54,4.70
2018,01,23,12,55,4.70
2018,01,23,12,56,4.70
2018,01,23,12,57,4.70
2018,01,23,12,58,4.70
2018,01,23,12,59,4.80
2018,01,23,13,00,4.80
2018,01,23,13,01,4.80
2018,01,23,13,02,4.80
2018,01,23,13,03,4.80
2018,01,23,13,04,4.80
2018,01,23,13,05,4.90
2018,01,23,13,06,4.90
2018,01,23,13,07,4.90
2018,01,23,13,08,4.90
2018,01,23,13,09,4.90
2018,01,23,13,10,4.90
2018,01,23,13,11,4.90
2018,01,23,13,12,4.90
2018,01,23,13,13,4.90
2018,01,23,13,14,4.90
2018,01,23,13,15,4.90
2018,01,23,13,16,4.90
2018,01,23,13,17,4.90
2018,01,23,13,18,4.90
2018,01,23,13,19,4.80
2018,01,23,13,20,4.80
2018,01,23,13,21,4.80
2018,01,23,13,22,4.80
2018,01,23,13,23,4.80
2018,01,23,13,24,4.80
2018,01,23,13,25,4.80
2018,01,23,13,26,4.80
2018,01,23,13,27,4.80
2018,01,23,13,28,4.80
2018,01,23,13,29,4.80
2018,01,23,13,30,4.80
2018,01,23,13,31,4.70
2018,01,23,13,32,4.70
2018,01,23,13,33,4.70
2018,01,23,13,34,4.70
2018,01,23,13,35,4.80
2018,01,23,13,36,4.80
2018,01,23,13,37,4.80
2018,01,23,13,38,4.80
2018,01,23,13,39,4.80
2018,01,23,13,40,4.80
2018,01,23,13,41,4.80
2018,01,23,13,42,4.80
2018,01,23,13,43,4.80
2018,01,23,13,44,4.80
2018,01,23,13,45,4.80
2018,01,23,13,46,4.90
2018,01,23,13,47,4.90
2018,01,23,13,48,4.90
2018,01,23,13,49,4.90
2018,01,23,13,50,4.90
2018,01,23,13,51,4.90
2018,01,23,13,52,4.90
2018,01,23,13,53,4.90
2018,01,23,13,54,4.90
2018,01,23,13,55,4.90
2018,01,23,13,56,4.90
2018,01,23,13,57,4.90
2018,01,23,13,58,4.90
2018,01,23,13,59,4.90
2018,01,23,14,00,4.90
2018,01,23,14,01,4.90
2018,01,23,14,02,4.90
2018,01,23,14,03,4.90
2018,01,23,14,04,4.90
2018,01,23,14,05,4.90
2018,01,23,14,06,4.90
2018,01,23,14,07,4.90
2018,01,23,14,08,4.90
2018,01,23,14,09,4.90
2018,01,23,14,10,4.90
2018,01,23,14,11,4.90
2018,01,23,14,12,4.90
2018,01,23,14,13,4.90
2018,01,23,14,14,4.90
2018,01,23,14,15,4.90
2018,01,23,14,16,4.90
2018,01,23,14,17,4.90
2018,01,23,14,18,4.90
2018,01,23,14,19,4.90
2018,01,23,14,20,4.90
2018,01,23,14,21,4.90
2018,01,23,14,22,4.90
2018,01,23,14,23,4.90
2018,01,23,14,24,4.90
2018,01,23,14,25,4.90
2018,01,23,14,26,4.90
2018,01,23,14,27,4.90
2018,01,23,14,28,4.90
2018,01,23,14,29,4.90
2018,01,23,14,30,4.90
2018,01,23,14,31,4.90
2018,01,23,14,32,4.90
2018,01,23,14,33,4.90
2018,01,23,14,34,4.90
2018,01,23,14,35,4.90
2018,01,23,14,36,4.90
2018,01,23,14,37,4.90
2018,01,23,14,38,4.90
2018,01,23,14,39,4.90
2018,01,23,14,40,4.90
2018,01,23,14,41,4.90
2018,01,23,14,42,4.90
2018,01,23,14,43,4.90
2018,01,23,14,44,4.90
2018,01,23,14,45,4.90
2018,01,23,14,46,4.90
2018,01,23,14,47,4.90
2018,01,23,14,48,4.90
2018,01,23,14,49,4.90
2018,01,23,14,50,4.90
2018,01,23,14,51,4.90
2018,01,23,14,52,4.90
2018,01,23,14,53,4.90
2018,01,23,14,54,4.90
2018,01,23,14,55,4.90
2018,01,23,14,56,4.90
2018,01,23,14,57,4.90
2018,01,23,14,58,4.90
2018,01,23,14,59,5.00
2018,01,23,15,00,5.00
2018,01,23,15,01,5.00
2018,01,23,15,02,5.00
2018,01,23,15,03,5.00
2018,01,23,15,04,5.00
2018,01,23,15,05,5.10
2018,01,23,15,06,5.10
2018,01,23,15,07,5.10
2018,01,23,15,08,5.10
2018,01,23,15,09,5.10
2018,01,23,15,10,5.10
2018,01,23,15,11,5.10
2018,01,23,15,12,5.10
2018,01,23,15,13,5.10
2018,01,23,15,14,5.10
2018,01,23,15,15,5.10
2018,01,23,15,16,5.10
2018,01,23,15,17,5.10
2018,01,23,15,18,5.10
2018,01,23,15,19,5.10
2018,01,23,15,20,5.10
2018,01,23,15,21,5.10
2018,01,23,15,22,5.10
2018,01,23,15,23,5.10
2018,01,23,15,24,5.10
2018,01,23,15,25,5.10
2018,01,23,15,26,5.10
2018,01,23,15,27,5.10
2018,01,23,15,28,5.20
2018,01,23,15,29,5.20
2018,01,23,15,30,5.20
2018,01,23,15,31,5.20
2018,01,23,15,32,5.20
2018,01,23,15,33,5.20
2018,01,23,15,34,5.20
2018,01,23,15,35,5.20
2018,01,23,15,36,5.20
2018,01,23,15,37,5.20
2018,01,23,15,38,5.20
2018,01,23,15,39,5.20
2018,01,23,15,40,5.20
2018,01,23,15,41,5.20
2018,01,23,15,42,5.20
2018,01,23,15,43,5.20
2018,01,23,15,44,5.20
2018,01,23,15,45,5.20
2018,01,23,15,46,5.20
2018,01,23,15,47,5.20
2018,01,23,15,48,5.20
2018,01,23,15,49,5.20
2018,01,23,15,50,5.20
2018,01,23,15,51,5.20
2018,01,23,15,52,5.20
2018,01,23,15,53,5.20
2018,01,23,15,54,5.20
2018,01,23,15,55,5.20
2018,01,23,15,56,5.20
2018,01,23,15,57,5.20
2018,01,23,15,58,5.20
2018,01,23,15,59,5.20
2018,01,23,16,00,5.20
2018,01,23,16,01,5.20
2018,01,23,16,02,5.20
2018,01,23,16,03,5.20
2018,01,23,16,04,5.20
2018,01,23,16,05,5.20
2018,01,23,16,06,5.20
2018,01,23,16,07,5.20
2018,01,23,16,08,5.20
2018,01,23,16,09,5.20
2018,01,23,16,10,5.20
2018,01,23,16,11,5.20
2018,01,23,16,12,5.10
2018,01,23,16,13,5.10
2018,01,23,16,14,5.10
2018,01,23,16,15,5.10
2018,01,23,16,16,5.10
2018,01,23,16,17,5.10
2018,01,23,16,18,5.10
2018,01,23,16,19,5.10
2018,01,23,16,20,5.10
2018,01,23,16,21,5.10
2018,01,23,16,22,5.10
2018,01,23,16,23,5.10
2018,01,23,16,24,5.10
2018,01,23,16,25,5.10
2018,01,23,16,26,5.10
2018,01,23,16,27,5.10
2018,01,23,16,28,5.10
2018,01,23,16,29,5.10
2018,01,23,16,30,5.10
2018,01,23,16,31,5.10
2018,01,23,16,32,5.20
2018,01,23,16,33,5.20
2018,01,23,16,34,5.20
2018,01,23,16,35,5.20
2018,01,23,16,36,5.20
2018,01,23,16,37,5.20
2018,01,23,16,38,5.20
2018,01,23,16,39,5.20
2018,01,23,16,40,5.20
2018,01,23,16,41,5.20
2018,01,23,16,42,5.20
2018,01,23,16,43,5.20
2018,01,23,16,44,5.20
2018,01,23,16,45,5.20
2018,01,23,16,46,5.20
2018,01,23,16,47,5.20
2018,01,23,16,48,5.20
2018,01,23,16,49,5.20
2018,01,23,16,50,5.20
2018,01,23,16,51,5.20
2018,01,23,16,52,5.20
2018,01,23,16,53,5.20
2018,01,23,16,54,5.20
2018,01,23,16,55,5.20
2018,01,23,16,56,5.20
2018,01,23,16,57,5.20
2018,01,23,16,58,5.20
2018,01,23,16,59,5.20
2018,01,23,17,00,5.20
2018,01,23,17,01,5.20
2018,01,23,17,02,5.20
2018,01,23,17,03,5.20
2018,01,23,17,04,5.20
2018,01,23,17,05,5.20
2018,01,23,17,06,5.20
2018,01,23,17,07,5.20
2018,01,23,17,08,5.20
2018,01,23,17,09,5.20
2018,01,23,17,10,5.20
2018,01,23,17,11,5.20
2018,01,23,17,12,5.20
2018,01,23,17,13,5.20
2018,01,23,17,14,5.30
2018,01,23,17,15,5.30
2018,01,23,17,16,5.30
2018,01,23,17,17,5.30
2018,01,23,17,18,5.30
2018,01,23,17,19,5.30
2018,01,23,17,20,5.30
2018,01,23,17,21,5.30
2018,01,23,17,22,5.30
2018,01,23,17,23,5.30
2018,01,23,17,24,5.30
2018,01,23,17,25,5.30
2018,01,23,17,26,5.30
2018,01,23,17,27,5.30
2018,01,23,17,28,5.30
2018,01,23,17,29,5.30
2018,01,23,17,30,5.30
2018,01,23,17,31,5.30
2018,01,23,17,32,5.30
2018,01,23,17,33,5.30
2018,01,23,17,34,5.30
2018,01,23,17,35,5.30
2018,01,23,17,36,5.30
2018,01,23,17,37,5.30
2018,01,23,17,38,5.30
2018,01,23,17,39,5.30
2018,01,23,17,40,5.40
2018,01,23,17,41,5.40
2018,01,23,17,42,5.40
2018,01,23,17,43,5.40
2018,01,23,17,44,5.40
2018,01,23,17,45,5.40
2018,01,23,17,46,5.40
2018,01,23,17,47,5.40
2018,01,23,17,48,5.40
2018,01,23,17,49,5.40
2018,01,23,17,50,5.40
2018,01,23,17,51,5.40
2018,01,23,17,52,5.40
2018,01,23,17,53,5.40
2018,01,23,17,54,5.40
2018,01,23,17,55,5.40
2018,01,23,17,56,5.40
2018,01,23,17,57,5.40
2018,01,23,17,58,5.40
2018,01,23,17,59,5.40
2018,01,23,18,00,5.40
2018,01,23,18,01,5.40
2018,01,23,18,02,5.40
2018,01,23,18,03,5.40
2018,01,23,18,04,5.40
2018,01,23,18,05,5.40
2018,01,23,18,06,5.40